sat.trackr.live / text

‹ back to catalog

YAOGAN-43 01H

NORAD 60465 · 2024-148H

PAYLOAD ACTIVE UNKNOWN

§ Identity

Operator
Country
PRC
Launch date
2024-08-16
Launch site
XICLF
Launch vehicle
Mass (kg)
RCS (m²)

External: N2YO · Heavens-Above · Gunter

§ Orbital elements

Epoch: 2026-05-25T03:06:30.191904Z

Period
94.28 min
Inclination
34.9914°
Eccentricity
0.0007388
Mean motion
15.27353771 rev/d
Perigee alt
478.7 km
Apogee alt
488.8 km
Semi-major
6,861.9 km
B*
2.4017e-4
RAAN
303.2030°
Arg perigee
340.1948°
Mean anomaly
19.8480°
Rev number
9,866

§ Raw data

YAOGAN-43 01H1 60465U 24148H   26145.12951611  .00006568  00000+0  24017-3 0  99952 60465  34.9914 303.2030 0007388 340.1948  19.8480 15.27353771 98669

JSON: /api/v1/satellites/60465 · /tle

For live sub-satellite position, see the globe view (requires WebGL).

§ Visibility from observer

Set your observer location to see the next 7 days of passes ≥ 10°. The values pass through the URL so the page stays shareable.

No JS? Fill the form by hand. The geolocation button needs JavaScript.